Preview of NWS' New Version of Forecast
This preview is not operational and should not be used for support decisions.

Regional Weather Roundup (RWR)

Issued by National Weather Service (NWS)

                            
000
ASUS43 KLSX 161207
RWRMO 

WEATHER SUMMARY FOR MISSOURI
NATIONAL WEATHER SERVICE SPRINGFIELD MO
700 AM CDT SUN JUN 16 2019

NOTE: "FAIR" INDICATES FEW OR NO CLOUDS BELOW 12,000 FEET WITH NO
       SIGNIFICANT WEATHER AND/OR OBSTRUCTIONS TO VISIBILITY.
       CURRENT SKY AND/OR WEATHER CONDITIONS ARE NOT AVAILABLE FOR
       CHILLICOTHE AND FARMINGTON.

MOZ001>031-035>038-043-044-053-054-161300-
...NORTHERN AND WESTERN MISSOURI...
  
CITY           SKY/WX    TMP DP  RH WIND       PRES   REMARKS
KANSAS CTY INT CLOUDY    68  65  90 W9        29.84R                  
6HR MIN TEMP:  68; 6HR MAX TEMP:  71;                                

KANSAS C DTWN  MOSUNNY   70  64  81 SW5       29.84R                  
6HR MIN TEMP:  70; 6HR MAX TEMP:  74;                                

LEE'S SUMMIT   SUNNY     70  65  84 SW8       29.86R                  
6HR MIN TEMP:  68; 6HR MAX TEMP:  72;                                

ST JOSEPH      SUNNY     68  63  84 CALM      29.84R                  
6HR MIN TEMP:  65; 6HR MAX TEMP:  70;                                

CHILLICOTHE      N/A     69  67  93 CALM      29.82R                  
6HR MIN TEMP:  67; 6HR MAX TEMP:  71;                                

KIRKSVILLE     SUNNY     68  67  96 NW6       29.80S                  
6HR MIN TEMP:  66; 6HR MAX TEMP:  69;                                

     
$$
MOZ066>068-077>081-088>096-101>105-161300-
...SOUTHWEST MISSOURI...
  
CITY           SKY/WX    TMP DP  RH WIND       PRES   REMARKS
SPRINGFIELD    LGT RAIN  66  63  90 N12G30    29.85F                  
6HR MIN TEMP:  65; 6HR MAX TEMP:  75; 6HR PCP:  1.16;                

JOPLIN         LGT RAIN  65  64  97 NE9       29.90F                  
6HR MIN TEMP:  64; 6HR MAX TEMP:  77; 6HR PCP:  1.16;                

BRANSON        CLOUDY    64  63  94 NW7       29.94R                  
               
$$
MOZ032>034-039>042-045>050-055>058-069>072-161300-
...CENTRAL MISSOURI...  
  
CITY           SKY/WX    TMP DP  RH WIND       PRES   REMARKS
COLUMBIA       PTSUNNY   73  70  90 S7        29.85R                  
6HR MIN TEMP:  73; 6HR MAX TEMP:  76;                                

ROLLA          TSTM      66  63  90 W13       29.92R                  
6HR MIN TEMP:  65; 6HR MAX TEMP:  73; 6HR PCP:  0.30;                

SEDALIA        LGT RAIN  69  64  84 W14G25    29.87R                  
6HR MIN TEMP:  69; 6HR MAX TEMP:  73; 6HR PCP: TRACE;                

WARRENSBURG    PTSUNNY   70  63  78 S16G22    29.86R                  
OSAGE BEACH    RAIN      67  65  93 SW15      29.94R                  
               
$$
MOZ051-052-059>065-161300-
...EAST CENTRAL MISSOURI...
  
CITY           SKY/WX    TMP DP  RH WIND       PRES   REMARKS
ST LOUIS INTL  CLOUDY    74  69  85 SW7       29.83R                  
6HR MIN TEMP:  73; 6HR MAX TEMP:  76; 6HR PCP:  0.12;                

SPIRIT OF STL  CLOUDY    74  70  87 SW7       29.82R                  
6HR MIN TEMP:  73; 6HR MAX TEMP:  77; 6HR PCP:  0.01;                

ST CHARLES       N/A    N/A N/A N/A MISG      29.82R                  
                   
$$
MOZ072>076-082>087-097>100-106>115-161300-
...SOUTH CENTRAL AND SOUTHEAST MISSOURI...
  
CITY           SKY/WX    TMP DP  RH WIND       PRES   REMARKS
CAPE GIRARDEAU CLOUDY    76  69  79 SW15G24   29.87R                  
6HR MIN TEMP:  72; 6HR MAX TEMP:  76;                                

FARMINGTON     MOSUNNY   72  70  93 SW7       29.88R                  
6HR MIN TEMP:  72; 6HR MAX TEMP:  73;                                

POPLAR BLUFF   FAIR      75  73  93 SW9       29.87R                  
6HR MIN TEMP:  71; 6HR MAX TEMP:  75;                                

WEST PLAINS    CLOUDY    74  69  85 SW8G20    29.90R                  
6HR MIN TEMP:  72; 6HR MAX TEMP:  75;                                

                                       
$$